Wetterdaten: Freitag, 01.05.2015
Datum Zeit Auen-Temp. Temp gefhlt Luftfeuchte Luftdruck Regen Wind Richtung Richtung Taupunkt Windben
01.05.2015 00:00 6,1 C 5,9 C 85 % 1013,0 hPa 0,0 mm 0,0 km/h (0 Bft) W-NW 292 3,8 C 0,0 km/h (0 Bft)
01.05.2015 00:05 6,1 C 6,0 C 80 % 1013,0 hPa 0,0 mm 0,3 km/h (0 Bft) W-SW 247 2,9 C 0,0 km/h (0 Bft)
01.05.2015 00:10 6,1 C 6,0 C 80 % 1013,0 hPa 0,0 mm 0,3 km/h (0 Bft) O-NO 67 2,9 C 0,0 km/h (0 Bft)
01.05.2015 00:15 6,1 C 5,9 C 86 % 1013,0 hPa 0,0 mm 0,3 km/h (0 Bft) O-NO 67 3,9 C 0,0 km/h (0 Bft)
01.05.2015 00:20 6,1 C 5,9 C 86 % 1012,8 hPa 0,0 mm 0,0 km/h (0 Bft) NW 315 3,9 C 0,0 km/h (0 Bft)
01.05.2015 00:25 6,1 C 6,0 C 81 % 1012,8 hPa 0,0 mm 0,0 km/h (0 Bft) O-NO 67 3,1 C 0,0 km/h (0 Bft)
01.05.2015 00:30 6,1 C 6,0 C 81 % 1012,8 hPa 0,0 mm 0,0 km/h (0 Bft) N-NO 22 3,1 C 0,0 km/h (0 Bft)
01.05.2015 00:35 6,1 C 5,9 C 86 % 1012,8 hPa 0,0 mm 0,0 km/h (0 Bft) O-SO 112 3,9 C 0,0 km/h (0 Bft)
01.05.2015 00:40 6,1 C 6,0 C 87 % 1012,4 hPa 0,0 mm 0,0 km/h (0 Bft) O-NO 67 4,1 C 0,0 km/h (0 Bft)
01.05.2015 00:45 6,1 C 5,9 C 87 % 1012,4 hPa 0,0 mm 0,0 km/h (0 Bft) O 90 4,1 C 0,0 km/h (0 Bft)
01.05.2015 00:50 6,0 C 5,9 C 82 % 1012,4 hPa 0,0 mm 0,0 km/h (0 Bft) N-NO 22 3,2 C 0,0 km/h (0 Bft)
01.05.2015 00:55 6,0 C 5,9 C 82 % 1012,4 hPa 0,0 mm 0,0 km/h (0 Bft) O 90 3,2 C 0,0 km/h (0 Bft)
01.05.2015 01:00 6,0 C 5,9 C 82 % 1012,1 hPa 0,0 mm 0,0 km/h (0 Bft) NO 45 3,2 C 0,0 km/h (0 Bft)
01.05.2015 01:05 6,1 C 5,9 C 87 % 1012,1 hPa 0,0 mm 0,0 km/h (0 Bft) NW 315 4,1 C 2,6 km/h (1 Bft)
01.05.2015 01:10 6,1 C 6,0 C 82 % 1012,1 hPa 0,0 mm 0,3 km/h (0 Bft) SO 135 3,3 C 0,0 km/h (0 Bft)
01.05.2015 01:15 6,1 C 6,0 C 82 % 1012,1 hPa 0,0 mm 0,5 km/h (0 Bft) NO 45 3,3 C 4,1 km/h (1 Bft)
01.05.2015 01:20 6,1 C 5,9 C 87 % 1011,8 hPa 0,0 mm 0,5 km/h (0 Bft) O 90 4,1 C 3,4 km/h (1 Bft)
01.05.2015 01:25 6,1 C 5,9 C 87 % 1011,8 hPa 0,0 mm 1,0 km/h (0 Bft) S-SO 157 4,1 C 5,4 km/h (1 Bft)
01.05.2015 01:30 6,1 C 5,9 C 87 % 1011,8 hPa 0,0 mm 1,6 km/h (1 Bft) O-SO 112 4,1 C 0,0 km/h (0 Bft)
01.05.2015 01:35 6,1 C 5,9 C 87 % 1011,8 hPa 0,0 mm 0,5 km/h (0 Bft) S-SW 202 4,1 C 0,0 km/h (0 Bft)
01.05.2015 01:40 6,1 C 5,9 C 87 % 1011,8 hPa 0,0 mm 0,3 km/h (0 Bft) O 90 4,1 C 3,4 km/h (1 Bft)
01.05.2015 01:45 6,1 C 6,0 C 82 % 1011,8 hPa 0,0 mm 1,0 km/h (0 Bft) O-SO 112 3,3 C 2,6 km/h (1 Bft)
01.05.2015 01:50 6,1 C 5,9 C 87 % 1011,8 hPa 0,0 mm 0,8 km/h (0 Bft) SO 135 4,1 C 0,0 km/h (0 Bft)
01.05.2015 01:55 6,1 C 5,9 C 87 % 1011,8 hPa 0,0 mm 0,5 km/h (0 Bft) O-SO 112 4,1 C 0,0 km/h (0 Bft)
01.05.2015 02:00 6,1 C 5,9 C 87 % 1011,5 hPa 0,0 mm 0,0 km/h (0 Bft) O-SO 112 4,1 C 0,0 km/h (0 Bft)
01.05.2015 02:05 6,1 C 5,9 C 87 % 1011,5 hPa 0,0 mm 0,0 km/h (0 Bft) O 90 4,1 C 0,0 km/h (0 Bft)
01.05.2015 02:10 6,0 C 5,9 C 82 % 1011,5 hPa 0,0 mm 0,0 km/h (0 Bft) O-NO 67 3,2 C 0,0 km/h (0 Bft)
01.05.2015 02:15 6,0 C 5,8 C 87 % 1011,5 hPa 0,0 mm 0,0 km/h (0 Bft) O-SO 112 4,0 C 0,0 km/h (0 Bft)
01.05.2015 02:20 6,0 C 5,8 C 86 % 1011,1 hPa 0,0 mm 0,0 km/h (0 Bft) N-NO 22 3,8 C 0,0 km/h (0 Bft)
01.05.2015 02:25 6,0 C 5,8 C 87 % 1011,1 hPa 0,0 mm 0,0 km/h (0 Bft) O-SO 112 4,0 C 0,0 km/h (0 Bft)
01.05.2015 02:30 6,0 C 5,9 C 83 % 1011,1 hPa 0,0 mm 1,6 km/h (1 Bft) SO 135 3,3 C 5,2 km/h (1 Bft)
01.05.2015 02:35 6,1 C 5,9 C 87 % 1011,1 hPa 0,0 mm 1,6 km/h (1 Bft) NO 45 4,1 C 10,6 km/h (2 Bft)
01.05.2015 02:40 6,0 C 5,9 C 83 % 1011,1 hPa 0,0 mm 0,0 km/h (0 Bft) O-NO 67 3,3 C 0,0 km/h (0 Bft)
01.05.2015 02:45 6,1 C 5,9 C 87 % 1011,1 hPa 0,0 mm 0,0 km/h (0 Bft) NW 315 4,1 C 0,0 km/h (0 Bft)
01.05.2015 02:50 6,1 C 5,9 C 87 % 1011,1 hPa 0,0 mm 0,0 km/h (0 Bft) O-SO 112 4,1 C 0,0 km/h (0 Bft)
01.05.2015 02:55 6,0 C 5,9 C 83 % 1011,1 hPa 0,0 mm 0,0 km/h (0 Bft) NO 45 3,3 C 0,0 km/h (0 Bft)
01.05.2015 03:00 6,0 C 5,9 C 87 % 1010,8 hPa 0,7 mm 0,3 km/h (0 Bft) SO 135 4,0 C 0,0 km/h (0 Bft)
01.05.2015 03:05 6,0 C 5,9 C 87 % 1010,8 hPa 0,0 mm 0,3 km/h (0 Bft) S-SO 157 4,0 C 0,0 km/h (0 Bft)
01.05.2015 03:10 6,0 C 5,9 C 83 % 1010,8 hPa 0,0 mm 0,0 km/h (0 Bft) W 270 3,3 C 0,0 km/h (0 Bft)
01.05.2015 03:15 6,0 C 5,9 C 87 % 1010,8 hPa 0,0 mm 0,0 km/h (0 Bft) O-SO 112 4,0 C 0,0 km/h (0 Bft)
01.05.2015 03:20 6,0 C 5,9 C 83 % 1010,7 hPa 0,0 mm 0,0 km/h (0 Bft) W 270 3,3 C 0,0 km/h (0 Bft)
01.05.2015 03:25 6,0 C 6,0 C 83 % 1010,7 hPa 0,0 mm 0,0 km/h (0 Bft) S-SO 157 3,3 C 0,0 km/h (0 Bft)
01.05.2015 03:30 6,0 C 6,0 C 83 % 1010,7 hPa 0,0 mm 0,0 km/h (0 Bft) W 270 3,3 C 3,4 km/h (1 Bft)
01.05.2015 03:35 6,0 C 6,0 C 83 % 1010,7 hPa 0,0 mm 0,0 km/h (0 Bft) S 180 3,3 C 0,0 km/h (0 Bft)
01.05.2015 03:40 6,0 C 6,0 C 83 % 1010,6 hPa 0,0 mm 1,0 km/h (0 Bft) S 180 3,3 C 5,4 km/h (1 Bft)
01.05.2015 03:45 6,1 C 6,0 C 87 % 1010,6 hPa 0,0 mm 1,6 km/h (1 Bft) SO 135 4,1 C 0,0 km/h (0 Bft)
01.05.2015 03:50 6,1 C 6,0 C 87 % 1010,6 hPa 0,0 mm 2,1 km/h (1 Bft) S-SO 157 4,1 C 0,0 km/h (0 Bft)
01.05.2015 03:55 6,1 C 6,0 C 83 % 1010,6 hPa 0,0 mm 1,0 km/h (0 Bft) W 270 3,4 C 0,0 km/h (0 Bft)
01.05.2015 04:00 6,2 C 6,0 C 87 % 1010,5 hPa 0,0 mm 0,3 km/h (0 Bft) NO 45 4,2 C 0,0 km/h (0 Bft)
01.05.2015 04:05 6,1 C 6,0 C 87 % 1010,5 hPa 0,0 mm 0,0 km/h (0 Bft) S-SO 157 4,1 C 0,0 km/h (0 Bft)
01.05.2015 04:10 6,1 C 6,0 C 87 % 1010,5 hPa 0,0 mm 0,0 km/h (0 Bft) W-SW 247 4,1 C 0,0 km/h (0 Bft)
01.05.2015 04:15 6,1 C 6,0 C 87 % 1010,5 hPa 0,7 mm 0,0 km/h (0 Bft) S 180 4,1 C 0,0 km/h (0 Bft)
01.05.2015 04:20 6,1 C 6,0 C 87 % 1010,4 hPa 0,0 mm 0,3 km/h (0 Bft) SW 225 4,1 C 0,0 km/h (0 Bft)
01.05.2015 04:25 6,1 C 6,0 C 87 % 1010,4 hPa 0,0 mm 0,5 km/h (0 Bft) SW 225 4,1 C 2,8 km/h (1 Bft)
01.05.2015 04:30 6,1 C 6,0 C 87 % 1010,4 hPa 0,0 mm 0,3 km/h (0 Bft) SW 225 4,1 C 2,6 km/h (1 Bft)
01.05.2015 04:35 6,1 C 6,0 C 87 % 1010,4 hPa 0,0 mm 0,3 km/h (0 Bft) S 180 4,1 C 0,0 km/h (0 Bft)
01.05.2015 04:40 6,1 C 6,0 C 87 % 1010,2 hPa 0,0 mm 0,8 km/h (0 Bft) SW 225 4,1 C 0,0 km/h (0 Bft)
01.05.2015 04:45 6,1 C 6,0 C 87 % 1010,2 hPa 0,0 mm 0,3 km/h (0 Bft) SW 225 4,1 C 0,0 km/h (0 Bft)
01.05.2015 04:50 6,1 C 6,0 C 87 % 1010,2 hPa 0,0 mm 0,0 km/h (0 Bft) S-SO 157 4,1 C 0,0 km/h (0 Bft)
01.05.2015 04:55 6,0 C 5,9 C 88 % 1010,2 hPa 0,7 mm 0,0 km/h (0 Bft) S-SW 202 4,2 C 0,0 km/h (0 Bft)
01.05.2015 05:00 6,0 C 5,9 C 88 % 1009,9 hPa 0,0 mm 0,0 km/h (0 Bft) O-SO 112 4,2 C 0,0 km/h (0 Bft)
01.05.2015 05:05 6,0 C 5,9 C 88 % 1009,9 hPa 0,0 mm 0,0 km/h (0 Bft) O-SO 112 4,2 C 0,0 km/h (0 Bft)
01.05.2015 05:10 6,0 C 5,9 C 88 % 1009,9 hPa 0,0 mm 0,0 km/h (0 Bft) O 90 4,2 C 0,0 km/h (0 Bft)
01.05.2015 05:15 6,0 C 5,9 C 88 % 1009,9 hPa 0,0 mm 0,0 km/h (0 Bft) O 90 4,2 C 0,0 km/h (0 Bft)
01.05.2015 05:20 6,0 C 5,9 C 88 % 1009,8 hPa 0,0 mm 0,0 km/h (0 Bft) O 90 4,2 C 0,0 km/h (0 Bft)
01.05.2015 05:25 6,0 C 5,9 C 88 % 1009,8 hPa 0,0 mm 0,0 km/h (0 Bft) O-SO 112 4,2 C 0,0 km/h (0 Bft)
01.05.2015 05:30 6,0 C 5,9 C 88 % 1009,8 hPa 0,7 mm 0,0 km/h (0 Bft) O-NO 67 4,2 C 0,0 km/h (0 Bft)
01.05.2015 05:35 5,9 C 5,9 C 85 % 1009,8 hPa 0,0 mm 0,0 km/h (0 Bft) NW 315 3,6 C 0,0 km/h (0 Bft)
01.05.2015 05:40 6,0 C 5,9 C 88 % 1009,8 hPa 0,0 mm 0,0 km/h (0 Bft) O-SO 112 4,2 C 0,0 km/h (0 Bft)
01.05.2015 05:45 6,0 C 5,9 C 88 % 1009,8 hPa 0,0 mm 0,0 km/h (0 Bft) O-NO 67 4,2 C 0,0 km/h (0 Bft)
01.05.2015 05:50 6,0 C 5,9 C 89 % 1009,8 hPa 0,0 mm 0,0 km/h (0 Bft) O-NO 67 4,3 C 0,0 km/h (0 Bft)
01.05.2015 05:55 6,0 C 5,9 C 89 % 1009,8 hPa 0,0 mm 0,0 km/h (0 Bft) W-SW 247 4,3 C 0,0 km/h (0 Bft)
01.05.2015 06:00 6,0 C 5,9 C 89 % 1009,6 hPa 0,7 mm 0,0 km/h (0 Bft) SO 135 4,3 C 0,0 km/h (0 Bft)
01.05.2015 06:05 5,9 C 5,9 C 86 % 1009,6 hPa 0,0 mm 0,0 km/h (0 Bft) NO 45 3,7 C 0,0 km/h (0 Bft)
01.05.2015 06:10 5,9 C 5,9 C 86 % 1009,6 hPa 0,0 mm 0,0 km/h (0 Bft) O-NO 67 3,7 C 0,0 km/h (0 Bft)
01.05.2015 06:15 5,9 C 5,9 C 86 % 1009,6 hPa 0,0 mm 0,0 km/h (0 Bft) W-SW 247 3,7 C 0,0 km/h (0 Bft)
01.05.2015 06:20 5,9 C 5,9 C 86 % 1009,2 hPa 0,0 mm 0,5 km/h (0 Bft) O-SO 112 3,7 C 0,0 km/h (0 Bft)
01.05.2015 06:25 5,9 C 5,9 C 86 % 1009,2 hPa 0,0 mm 0,8 km/h (0 Bft) O 90 3,7 C 0,0 km/h (0 Bft)
01.05.2015 06:30 5,9 C 5,9 C 86 % 1009,2 hPa 0,0 mm 0,3 km/h (0 Bft) W 270 3,7 C 0,0 km/h (0 Bft)
01.05.2015 06:35 6,0 C 5,9 C 89 % 1009,2 hPa 0,7 mm 0,5 km/h (0 Bft) O 90 4,3 C 3,6 km/h (1 Bft)
01.05.2015 06:40 6,0 C 6,0 C 85 % 1009,1 hPa 0,0 mm 0,5 km/h (0 Bft) W-NW 292 3,7 C 0,0 km/h (0 Bft)
01.05.2015 06:45 6,0 C 6,0 C 85 % 1009,1 hPa 0,0 mm 0,8 km/h (0 Bft) O-NO 67 3,7 C 0,0 km/h (0 Bft)
01.05.2015 06:50 6,0 C 6,0 C 85 % 1009,1 hPa 0,0 mm 0,3 km/h (0 Bft) N-NO 22 3,7 C 0,0 km/h (0 Bft)
01.05.2015 06:55 6,1 C 6,1 C 85 % 1009,1 hPa 0,0 mm 0,0 km/h (0 Bft) O-NO 67 3,8 C 0,0 km/h (0 Bft)
01.05.2015 07:00 6,1 C 6,1 C 85 % 1008,7 hPa 0,0 mm 0,0 km/h (0 Bft) O-NO 67 3,8 C 0,0 km/h (0 Bft)
01.05.2015 07:05 6,1 C 6,1 C 85 % 1008,7 hPa 0,0 mm 0,5 km/h (0 Bft) N-NW 337 3,8 C 0,0 km/h (0 Bft)
01.05.2015 07:10 6,2 C 6,2 C 85 % 1008,7 hPa 0,0 mm 0,5 km/h (0 Bft) NW 315 3,9 C 0,0 km/h (0 Bft)
01.05.2015 07:15 6,2 C 6,2 C 85 % 1008,7 hPa 0,0 mm 0,5 km/h (0 Bft) W 270 3,9 C 0,0 km/h (0 Bft)
01.05.2015 07:20 6,2 C 6,3 C 85 % 1008,6 hPa 0,0 mm 0,3 km/h (0 Bft) N-NO 22 3,9 C 0,0 km/h (0 Bft)
01.05.2015 07:25 6,3 C 6,3 C 85 % 1008,6 hPa 0,0 mm 1,3 km/h (1 Bft) O-NO 67 4,0 C 0,0 km/h (0 Bft)
01.05.2015 07:30 6,3 C 6,3 C 85 % 1008,6 hPa 0,0 mm 1,8 km/h (1 Bft) O-NO 67 4,0 C 0,0 km/h (0 Bft)
01.05.2015 07:35 6,3 C 6,3 C 85 % 1008,6 hPa 0,0 mm 1,0 km/h (0 Bft) N-NO 22 4,0 C 3,4 km/h (1 Bft)
01.05.2015 07:40 6,4 C 6,4 C 85 % 1008,6 hPa 0,0 mm 0,5 km/h (0 Bft) N-NO 22 4,1 C 5,2 km/h (1 Bft)
01.05.2015 07:45 6,4 C 6,5 C 85 % 1008,6 hPa 0,0 mm 0,5 km/h (0 Bft) O-NO 67 4,1 C 0,0 km/h (0 Bft)
01.05.2015 07:50 6,4 C 6,5 C 85 % 1008,6 hPa 0,7 mm 0,5 km/h (0 Bft) N-NO 22 4,1 C 0,0 km/h (0 Bft)
01.05.2015 07:55 6,5 C 6,6 C 85 % 1008,6 hPa 0,0 mm 0,0 km/h (0 Bft) W-NW 292 4,2 C 0,0 km/h (0 Bft)
01.05.2015 08:00 6,5 C 6,6 C 85 % 1008,4 hPa 0,0 mm 0,3 km/h (0 Bft) W 270 4,2 C 3,4 km/h (1 Bft)
01.05.2015 08:05 6,6 C 6,7 C 85 % 1008,4 hPa 0,0 mm 0,3 km/h (0 Bft) N-NW 337 4,3 C 0,0 km/h (0 Bft)
01.05.2015 08:10 6,6 C 6,7 C 85 % 1008,4 hPa 0,0 mm 0,0 km/h (0 Bft) O 90 4,3 C 0,0 km/h (0 Bft)
01.05.2015 08:15 6,7 C 6,8 C 85 % 1008,4 hPa 0,0 mm 0,3 km/h (0 Bft) W-SW 247 4,4 C 0,0 km/h (0 Bft)
01.05.2015 08:20 6,7 C 6,9 C 85 % 1008,4 hPa 0,0 mm 0,3 km/h (0 Bft) NW 315 4,4 C 0,0 km/h (0 Bft)
01.05.2015 08:25 6,8 C 6,9 C 85 % 1008,4 hPa 0,0 mm 0,0 km/h (0 Bft) O-NO 67 4,5 C 0,0 km/h (0 Bft)
01.05.2015 08:30 6,8 C 6,9 C 85 % 1008,4 hPa 0,0 mm 0,0 km/h (0 Bft) N-NO 22 4,5 C 0,0 km/h (0 Bft)
01.05.2015 08:35 6,8 C 7,1 C 85 % 1008,4 hPa 0,0 mm 0,0 km/h (0 Bft) NW 315 4,5 C 0,0 km/h (0 Bft)
01.05.2015 08:40 6,9 C 7,2 C 85 % 1008,4 hPa 0,7 mm 0,0 km/h (0 Bft) NW 315 4,6 C 0,0 km/h (0 Bft)
01.05.2015 08:45 6,9 C 7,2 C 85 % 1008,4 hPa 0,0 mm 0,0 km/h (0 Bft) S-SO 157 4,6 C 0,0 km/h (0 Bft)
01.05.2015 08:50 6,9 C 7,2 C 85 % 1008,4 hPa 0,0 mm 0,0 km/h (0 Bft) O-SO 112 4,6 C 0,0 km/h (0 Bft)
01.05.2015 08:55 7,0 C 7,2 C 85 % 1008,4 hPa 0,0 mm 0,0 km/h (0 Bft) N 360 4,7 C 0,0 km/h (0 Bft)
01.05.2015 09:00 7,0 C 7,3 C 85 % 1008,1 hPa 0,0 mm 0,0 km/h (0 Bft) NO 45 4,7 C 0,0 km/h (0 Bft)
01.05.2015 09:05 7,1 C 7,3 C 85 % 1008,1 hPa 0,0 mm 0,0 km/h (0 Bft) O-NO 67 4,8 C 0,0 km/h (0 Bft)
01.05.2015 09:10 7,1 C 7,4 C 85 % 1008,1 hPa 0,0 mm 0,0 km/h (0 Bft) S 180 4,8 C 0,0 km/h (0 Bft)
01.05.2015 09:15 7,3 C 7,6 C 85 % 1008,1 hPa 0,0 mm 0,0 km/h (0 Bft) O-SO 112 4,9 C 0,0 km/h (0 Bft)
01.05.2015 09:20 7,4 C 7,7 C 85 % 1007,8 hPa 0,0 mm 0,3 km/h (0 Bft) S 180 5,0 C 0,0 km/h (0 Bft)
01.05.2015 09:25 7,4 C 7,7 C 85 % 1007,8 hPa 0,0 mm 0,0 km/h (0 Bft) N-NO 22 5,0 C 0,0 km/h (0 Bft)
01.05.2015 09:30 7,4 C 7,8 C 85 % 1007,8 hPa 0,0 mm 0,0 km/h (0 Bft) N-NW 337 5,0 C 0,0 km/h (0 Bft)
01.05.2015 09:35 7,5 C 7,9 C 85 % 1007,8 hPa 0,0 mm 0,0 km/h (0 Bft) N-NO 22 5,1 C 0,0 km/h (0 Bft)
01.05.2015 09:40 7,6 C 8,1 C 85 % 1007,6 hPa 0,0 mm 0,3 km/h (0 Bft) W-NW 292 5,2 C 0,0 km/h (0 Bft)
01.05.2015 09:45 7,7 C 8,1 C 85 % 1007,6 hPa 0,0 mm 0,3 km/h (0 Bft) NW 315 5,3 C 0,0 km/h (0 Bft)
01.05.2015 09:50 7,7 C 8,1 C 85 % 1007,6 hPa 0,7 mm 0,5 km/h (0 Bft) N-NO 22 5,3 C 0,0 km/h (0 Bft)
01.05.2015 09:55 7,7 C 8,1 C 85 % 1007,6 hPa 0,0 mm 0,5 km/h (0 Bft) S-SO 157 5,3 C 0,0 km/h (0 Bft)
01.05.2015 10:00 7,8 C 8,1 C 85 % 1007,6 hPa 0,0 mm 0,5 km/h (0 Bft) NO 45 5,4 C 4,7 km/h (1 Bft)
01.05.2015 10:05 7,8 C 8,1 C 85 % 1007,6 hPa 0,0 mm 1,3 km/h (1 Bft) N-NW 337 5,4 C 0,0 km/h (0 Bft)
01.05.2015 10:10 7,8 C 8,1 C 85 % 1007,6 hPa 0,0 mm 1,8 km/h (1 Bft) O-NO 67 5,4 C 5,2 km/h (1 Bft)
01.05.2015 10:15 7,8 C 8,1 C 85 % 1007,6 hPa 0,0 mm 1,8 km/h (1 Bft) NW 315 5,4 C 3,1 km/h (1 Bft)
01.05.2015 10:20 7,9 C 8,2 C 85 % 1007,6 hPa 0,0 mm 1,8 km/h (1 Bft) N-NO 22 5,5 C 0,0 km/h (0 Bft)
01.05.2015 10:25 7,9 C 8,2 C 85 % 1007,6 hPa 0,0 mm 0,8 km/h (0 Bft) NO 45 5,5 C 2,6 km/h (1 Bft)
01.05.2015 10:30 7,9 C 8,2 C 85 % 1007,6 hPa 0,0 mm 0,5 km/h (0 Bft) NO 45 5,5 C 0,0 km/h (0 Bft)
01.05.2015 10:35 8,0 C 8,5 C 85 % 1007,6 hPa 0,0 mm 0,8 km/h (0 Bft) NO 45 5,6 C 0,0 km/h (0 Bft)
01.05.2015 10:40 8,1 C 8,5 C 85 % 1007,2 hPa 0,0 mm 1,3 km/h (1 Bft) O-NO 67 5,7 C 5,7 km/h (1 Bft)
01.05.2015 10:45 8,2 C 8,5 C 85 % 1007,2 hPa 0,0 mm 1,6 km/h (1 Bft) O-NO 67 5,8 C 0,0 km/h (0 Bft)
01.05.2015 10:50 8,3 C 8,6 C 85 % 1007,2 hPa 0,0 mm 1,0 km/h (0 Bft) NO 45 5,9 C 0,0 km/h (0 Bft)
01.05.2015 10:55 8,3 C 8,8 C 85 % 1007,2 hPa 0,0 mm 1,0 km/h (0 Bft) NO 45 5,9 C 4,7 km/h (1 Bft)
01.05.2015 11:00 8,5 C 8,9 C 85 % 1007,2 hPa 0,0 mm 1,3 km/h (1 Bft) O-SO 112 6,1 C 0,0 km/h (0 Bft)
01.05.2015 11:05 8,6 C 9,2 C 85 % 1007,2 hPa 0,0 mm 0,3 km/h (0 Bft) NO 45 6,2 C 0,0 km/h (0 Bft)
01.05.2015 11:10 8,7 C 9,3 C 85 % 1007,2 hPa 0,7 mm 0,5 km/h (0 Bft) N-NO 22 6,3 C 3,6 km/h (1 Bft)
01.05.2015 11:15 8,8 C 9,3 C 85 % 1007,2 hPa 0,0 mm 0,5 km/h (0 Bft) W-SW 247 6,4 C 0,0 km/h (0 Bft)
01.05.2015 11:20 8,8 C 9,5 C 85 % 1007,2 hPa 0,0 mm 0,0 km/h (0 Bft) W-NW 292 6,4 C 0,0 km/h (0 Bft)
01.05.2015 11:25 8,8 C 9,3 C 84 % 1007,2 hPa 0,0 mm 1,0 km/h (0 Bft) O-NO 67 6,2 C 0,0 km/h (0 Bft)
01.05.2015 11:30 8,9 C 9,7 C 84 % 1007,2 hPa 0,0 mm 1,3 km/h (1 Bft) N-NO 22 6,3 C 0,0 km/h (0 Bft)
01.05.2015 11:35 9,0 C 9,6 C 84 % 1007,2 hPa 0,0 mm 1,3 km/h (1 Bft) N-NO 22 6,4 C 3,4 km/h (1 Bft)
01.05.2015 11:40 9,0 C 9,6 C 84 % 1006,8 hPa 0,0 mm 1,6 km/h (1 Bft) NO 45 6,4 C 3,9 km/h (1 Bft)
01.05.2015 11:45 9,1 C 9,7 C 84 % 1006,8 hPa 0,0 mm 2,8 km/h (1 Bft) W-NW 292 6,5 C 4,4 km/h (1 Bft)
01.05.2015 11:50 9,3 C 10,1 C 84 % 1006,8 hPa 0,0 mm 2,3 km/h (1 Bft) O 90 6,7 C 2,8 km/h (1 Bft)
01.05.2015 11:55 9,4 C 10,2 C 84 % 1006,8 hPa 0,0 mm 1,0 km/h (0 Bft) N-NW 337 6,8 C 0,0 km/h (0 Bft)
01.05.2015 12:00 9,5 C 10,4 C 84 % 1006,9 hPa 0,0 mm 0,3 km/h (0 Bft) N-NO 22 6,9 C 0,0 km/h (0 Bft)
01.05.2015 12:05 9,7 C 10,4 C 84 % 1006,9 hPa 0,0 mm 0,0 km/h (0 Bft) NO 45 7,1 C 0,0 km/h (0 Bft)
01.05.2015 12:10 9,7 C 10,5 C 84 % 1006,9 hPa 0,0 mm 0,0 km/h (0 Bft) O-NO 67 7,1 C 0,0 km/h (0 Bft)
01.05.2015 12:16 9,9 C 10,6 C 84 % 1006,9 hPa 0,7 mm 0,0 km/h (0 Bft) NO 45 7,3 C 0,0 km/h (0 Bft)
01.05.2015 12:20 9,9 C 10,6 C 84 % 1006,8 hPa 0,0 mm 0,8 km/h (0 Bft) NO 45 7,3 C 4,1 km/h (1 Bft)
01.05.2015 12:25 9,9 C 10,5 C 84 % 1006,8 hPa 0,0 mm 1,6 km/h (1 Bft) O-SO 112 7,3 C 0,0 km/h (0 Bft)
01.05.2015 12:30 10,0 C 10,7 C 84 % 1006,8 hPa 0,0 mm 1,3 km/h (1 Bft) N-NO 22 7,4 C 0,0 km/h (0 Bft)
01.05.2015 12:35 10,1 C 10,7 C 84 % 1006,8 hPa 0,0 mm 0,5 km/h (0 Bft) N-NO 22 7,5 C 0,0 km/h (0 Bft)
01.05.2015 12:40 10,1 C 10,6 C 84 % 1006,8 hPa 0,0 mm 2,1 km/h (1 Bft) O 90 7,5 C 3,9 km/h (1 Bft)
01.05.2015 12:45 10,0 C 10,5 C 84 % 1006,8 hPa 0,0 mm 3,9 km/h (1 Bft) NO 45 7,4 C 0,0 km/h (0 Bft)
01.05.2015 12:50 10,1 C 10,6 C 84 % 1006,8 hPa 0,0 mm 3,9 km/h (1 Bft) O-NO 67 7,5 C 4,4 km/h (1 Bft)
01.05.2015 12:55 10,2 C 10,6 C 84 % 1006,8 hPa 0,0 mm 3,4 km/h (1 Bft) O-NO 67 7,6 C 3,4 km/h (1 Bft)
01.05.2015 13:00 10,2 C 10,8 C 84 % 1006,6 hPa 0,0 mm 2,6 km/h (1 Bft) N-NO 22 7,6 C 4,4 km/h (1 Bft)
01.05.2015 13:06 10,4 C 10,9 C 84 % 1006,6 hPa 0,0 mm 1,8 km/h (1 Bft) O-NO 67 7,8 C 4,9 km/h (1 Bft)
01.05.2015 13:10 10,4 C 11,0 C 84 % 1006,6 hPa 0,0 mm 1,8 km/h (1 Bft) N-NW 337 7,8 C 0,0 km/h (0 Bft)
01.05.2015 13:15 10,5 C 11,1 C 84 % 1006,6 hPa 0,0 mm 1,6 km/h (1 Bft) N-NO 22 7,9 C 2,8 km/h (1 Bft)
01.05.2015 13:20 10,6 C 11,2 C 84 % 1006,6 hPa 0,0 mm 0,3 km/h (0 Bft) NW 315 8,0 C 0,0 km/h (0 Bft)
01.05.2015 13:25 10,8 C 11,3 C 84 % 1006,6 hPa 0,0 mm 1,0 km/h (0 Bft) O-NO 67 8,2 C 3,6 km/h (1 Bft)
01.05.2015 13:30 10,8 C 11,2 C 84 % 1006,6 hPa 0,0 mm 1,6 km/h (1 Bft) O-NO 67 8,2 C 0,0 km/h (0 Bft)
01.05.2015 13:35 10,7 C 11,0 C 83 % 1006,6 hPa 0,0 mm 2,8 km/h (1 Bft) NO 45 7,9 C 2,8 km/h (1 Bft)
01.05.2015 13:40 10,6 C 10,8 C 83 % 1006,6 hPa 0,0 mm 2,1 km/h (1 Bft) NW 315 7,8 C 0,0 km/h (0 Bft)
01.05.2015 13:45 10,7 C 11,0 C 83 % 1006,6 hPa 0,0 mm 1,0 km/h (0 Bft) O-NO 67 7,9 C 0,0 km/h (0 Bft)
01.05.2015 13:50 10,6 C 10,9 C 83 % 1006,6 hPa 0,0 mm 0,8 km/h (0 Bft) N-NO 22 7,8 C 0,0 km/h (0 Bft)
01.05.2015 13:55 10,8 C 11,2 C 83 % 1006,6 hPa 0,7 mm 0,8 km/h (0 Bft) W-SW 247 8,0 C 0,0 km/h (0 Bft)
01.05.2015 14:00 11,0 C 11,4 C 83 % 1006,5 hPa 0,0 mm 0,8 km/h (0 Bft) NW 315 8,2 C 3,4 km/h (1 Bft)
01.05.2015 14:05 11,1 C 11,4 C 83 % 1006,5 hPa 0,0 mm 0,8 km/h (0 Bft) NO 45 8,3 C 0,0 km/h (0 Bft)
01.05.2015 14:10 11,1 C 11,4 C 83 % 1006,5 hPa 0,0 mm 0,5 km/h (0 Bft) O-SO 112 8,3 C 3,4 km/h (1 Bft)
01.05.2015 14:15 11,1 C 11,6 C 83 % 1006,5 hPa 0,0 mm 0,3 km/h (0 Bft) N-NO 22 8,3 C 0,0 km/h (0 Bft)
01.05.2015 14:20 11,1 C 11,7 C 83 % 1006,6 hPa 0,0 mm 0,3 km/h (0 Bft) O-NO 67 8,3 C 0,0 km/h (0 Bft)
01.05.2015 14:25 11,1 C 11,8 C 83 % 1006,6 hPa 0,0 mm 0,0 km/h (0 Bft) NW 315 8,3 C 0,0 km/h (0 Bft)
01.05.2015 14:30 11,3 C 11,8 C 83 % 1006,6 hPa 0,0 mm 0,0 km/h (0 Bft) N-NO 22 8,5 C 0,0 km/h (0 Bft)
01.05.2015 14:35 11,4 C 12,0 C 83 % 1006,6 hPa 0,0 mm 0,0 km/h (0 Bft) N-NW 337 8,6 C 0,0 km/h (0 Bft)
01.05.2015 14:40 11,5 C 12,2 C 83 % 1006,7 hPa 0,0 mm 0,3 km/h (0 Bft) O 90 8,7 C 0,0 km/h (0 Bft)
01.05.2015 14:45 11,7 C 12,2 C 83 % 1006,7 hPa 0,0 mm 0,5 km/h (0 Bft) NW 315 8,9 C 0,0 km/h (0 Bft)
01.05.2015 14:50 11,7 C 12,0 C 83 % 1006,7 hPa 0,0 mm 0,8 km/h (0 Bft) O 90 8,9 C 0,0 km/h (0 Bft)
01.05.2015 14:55 11,4 C 11,7 C 82 % 1006,7 hPa 0,0 mm 0,8 km/h (0 Bft) S-SO 157 8,4 C 2,8 km/h (1 Bft)
01.05.2015 15:00 11,3 C 11,6 C 82 % 1006,3 hPa 0,0 mm 0,5 km/h (0 Bft) O-NO 67 8,3 C 0,0 km/h (0 Bft)
01.05.2015 15:05 11,3 C 11,6 C 83 % 1006,3 hPa 0,0 mm 0,3 km/h (0 Bft) S 180 8,5 C 0,0 km/h (0 Bft)
01.05.2015 15:10 11,3 C 11,6 C 83 % 1006,3 hPa 0,0 mm 0,3 km/h (0 Bft) S-SO 157 8,5 C 0,0 km/h (0 Bft)
01.05.2015 15:15 11,3 C 11,7 C 83 % 1006,3 hPa 0,0 mm 0,3 km/h (0 Bft) N-NO 22 8,5 C 0,0 km/h (0 Bft)
01.05.2015 15:20 11,4 C 11,7 C 83 % 1006,2 hPa 0,0 mm 0,8 km/h (0 Bft) O-NO 67 8,6 C 0,0 km/h (0 Bft)
01.05.2015 15:25 11,4 C 11,6 C 82 % 1006,2 hPa 0,0 mm 0,8 km/h (0 Bft) SO 135 8,4 C 0,0 km/h (0 Bft)
01.05.2015 15:30 11,3 C 11,6 C 82 % 1006,2 hPa 0,0 mm 0,0 km/h (0 Bft) S-SW 202 8,3 C 0,0 km/h (0 Bft)
01.05.2015 15:35 11,4 C 11,8 C 82 % 1006,2 hPa 0,7 mm 0,0 km/h (0 Bft) S-SO 157 8,4 C 0,0 km/h (0 Bft)
01.05.2015 15:40 11,5 C 12,1 C 82 % 1006,2 hPa 0,0 mm 0,0 km/h (0 Bft) S 180 8,5 C 0,0 km/h (0 Bft)
01.05.2015 15:45 11,7 C 12,5 C 82 % 1006,2 hPa 0,0 mm 0,0 km/h (0 Bft) S-SO 157 8,7 C 3,1 km/h (1 Bft)
01.05.2015 15:50 11,9 C 12,8 C 82 % 1006,2 hPa 0,0 mm 0,0 km/h (0 Bft) O-NO 67 8,9 C 0,0 km/h (0 Bft)
01.05.2015 15:55 12,3 C 13,4 C 82 % 1006,2 hPa 0,0 mm 0,3 km/h (0 Bft) NO 45 9,3 C 3,1 km/h (1 Bft)
01.05.2015 16:00 12,4 C 13,6 C 82 % 1005,9 hPa 0,0 mm 0,3 km/h (0 Bft) O-NO 67 9,4 C 0,0 km/h (0 Bft)
01.05.2015 16:05 12,6 C 14,0 C 81 % 1005,9 hPa 0,0 mm 0,5 km/h (0 Bft) S-SW 202 9,4 C 0,0 km/h (0 Bft)
01.05.2015 16:10 12,8 C 14,4 C 81 % 1005,9 hPa 0,0 mm 0,8 km/h (0 Bft) NO 45 9,6 C 5,7 km/h (1 Bft)
01.05.2015 16:15 12,7 C 14,4 C 80 % 1005,9 hPa 0,0 mm 1,8 km/h (1 Bft) W-SW 247 9,3 C 4,7 km/h (1 Bft)
01.05.2015 16:20 12,7 C 14,0 C 79 % 1005,7 hPa 0,0 mm 1,8 km/h (1 Bft) W 270 9,2 C 0,0 km/h (0 Bft)
01.05.2015 16:25 12,9 C 13,7 C 79 % 1005,7 hPa 0,0 mm 0,5 km/h (0 Bft) O-NO 67 9,3 C 0,0 km/h (0 Bft)
01.05.2015 16:30 12,9 C 13,7 C 79 % 1005,7 hPa 0,0 mm 0,0 km/h (0 Bft) O-NO 67 9,3 C 0,0 km/h (0 Bft)
01.05.2015 16:35 12,8 C 13,7 C 79 % 1005,7 hPa 0,0 mm 0,3 km/h (0 Bft) S 180 9,2 C 0,0 km/h (0 Bft)
01.05.2015 16:40 12,9 C 14,1 C 79 % 1005,2 hPa 0,0 mm 0,3 km/h (0 Bft) W-SW 247 9,3 C 0,0 km/h (0 Bft)
01.05.2015 16:45 12,9 C 14,5 C 79 % 1005,2 hPa 0,0 mm 0,0 km/h (0 Bft) N-NW 337 9,3 C 0,0 km/h (0 Bft)
01.05.2015 16:50 12,8 C 14,3 C 79 % 1005,2 hPa 0,0 mm 0,0 km/h (0 Bft) O-NO 67 9,2 C 0,0 km/h (0 Bft)
01.05.2015 16:55 12,6 C 14,1 C 79 % 1005,2 hPa 0,0 mm 0,0 km/h (0 Bft) S 180 9,1 C 0,0 km/h (0 Bft)
01.05.2015 17:00 12,7 C 14,3 C 79 % 1005,1 hPa 0,0 mm 0,0 km/h (0 Bft) S-SW 202 9,2 C 3,1 km/h (1 Bft)
01.05.2015 17:05 12,8 C 14,3 C 79 % 1005,1 hPa 0,0 mm 0,3 km/h (0 Bft) O-SO 112 9,2 C 0,0 km/h (0 Bft)
01.05.2015 17:10 12,8 C 14,5 C 79 % 1005,1 hPa 0,0 mm 0,3 km/h (0 Bft) S 180 9,2 C 0,0 km/h (0 Bft)
01.05.2015 17:15 12,8 C 14,5 C 80 % 1005,1 hPa 0,0 mm 0,0 km/h (0 Bft) N-NO 22 9,4 C 0,0 km/h (0 Bft)
01.05.2015 17:20 12,8 C 14,3 C 80 % 1004,9 hPa 0,0 mm 0,0 km/h (0 Bft) SO 135 9,4 C 0,0 km/h (0 Bft)
01.05.2015 17:25 12,9 C 14,1 C 81 % 1004,9 hPa 0,0 mm 0,0 km/h (0 Bft) W-SW 247 9,7 C 3,4 km/h (1 Bft)
01.05.2015 17:30 12,8 C 13,8 C 80 % 1004,9 hPa 0,0 mm 0,3 km/h (0 Bft) SW 225 9,4 C 0,0 km/h (0 Bft)
01.05.2015 17:35 12,5 C 13,4 C 81 % 1004,9 hPa 0,0 mm 0,3 km/h (0 Bft) S-SW 202 9,3 C 0,0 km/h (0 Bft)
01.05.2015 17:40 12,4 C 12,9 C 81 % 1004,8 hPa 0,0 mm 0,0 km/h (0 Bft) S-SO 157 9,2 C 0,0 km/h (0 Bft)
01.05.2015 17:45 12,1 C 12,4 C 81 % 1004,8 hPa 0,0 mm 0,0 km/h (0 Bft) S-SW 202 8,9 C 0,0 km/h (0 Bft)
01.05.2015 17:50 12,0 C 12,2 C 82 % 1004,8 hPa 0,0 mm 0,0 km/h (0 Bft) S 180 9,0 C 0,0 km/h (0 Bft)
01.05.2015 17:55 11,8 C 12,0 C 82 % 1004,8 hPa 0,0 mm 0,0 km/h (0 Bft) S-SO 157 8,8 C 2,8 km/h (1 Bft)
01.05.2015 18:00 11,7 C 11,8 C 82 % 1004,7 hPa 0,0 mm 0,0 km/h (0 Bft) SO 135 8,7 C 0,0 km/h (0 Bft)
01.05.2015 18:05 11,7 C 11,8 C 82 % 1004,7 hPa 0,0 mm 0,3 km/h (0 Bft) O 90 8,7 C 0,0 km/h (0 Bft)
01.05.2015 18:10 11,7 C 11,9 C 83 % 1004,7 hPa 0,0 mm 0,3 km/h (0 Bft) W 270 8,9 C 0,0 km/h (0 Bft)
01.05.2015 18:15 11,7 C 11,8 C 83 % 1004,7 hPa 0,0 mm 0,0 km/h (0 Bft) S-SO 157 8,9 C 0,0 km/h (0 Bft)
01.05.2015 18:20 11,6 C 11,8 C 83 % 1004,6 hPa 0,0 mm 0,0 km/h (0 Bft) S 180 8,8 C 0,0 km/h (0 Bft)
01.05.2015 18:25 11,5 C 11,6 C 83 % 1004,6 hPa 0,0 mm 0,3 km/h (0 Bft) O 90 8,7 C 3,6 km/h (1 Bft)
01.05.2015 18:30 11,5 C 11,4 C 85 % 1004,6 hPa 0,0 mm 0,5 km/h (0 Bft) S 180 9,1 C 0,0 km/h (0 Bft)
01.05.2015 18:35 11,3 C 11,3 C 83 % 1004,6 hPa 0,0 mm 0,5 km/h (0 Bft) SO 135 8,5 C 0,0 km/h (0 Bft)
01.05.2015 18:40 11,3 C 11,2 C 85 % 1004,4 hPa 0,0 mm 0,0 km/h (0 Bft) O-SO 112 8,9 C 0,0 km/h (0 Bft)
01.05.2015 18:45 11,1 C 11,2 C 84 % 1004,4 hPa 0,0 mm 0,3 km/h (0 Bft) S 180 8,5 C 0,0 km/h (0 Bft)
01.05.2015 18:50 11,1 C 11,1 C 84 % 1004,4 hPa 0,7 mm 0,3 km/h (0 Bft) S-SO 157 8,5 C 0,0 km/h (0 Bft)
01.05.2015 18:55 11,0 C 11,0 C 84 % 1004,4 hPa 0,0 mm 0,0 km/h (0 Bft) S-SO 157 8,4 C 0,0 km/h (0 Bft)
01.05.2015 19:00 11,0 C 11,0 C 84 % 1004,4 hPa 0,0 mm 0,0 km/h (0 Bft) SO 135 8,4 C 0,0 km/h (0 Bft)
01.05.2015 19:05 11,0 C 11,0 C 84 % 1004,4 hPa 0,0 mm 0,0 km/h (0 Bft) S-SO 157 8,4 C 0,0 km/h (0 Bft)
01.05.2015 19:10 11,0 C 11,0 C 84 % 1004,4 hPa 0,0 mm 0,0 km/h (0 Bft) S-SW 202 8,4 C 0,0 km/h (0 Bft)
01.05.2015 19:15 11,0 C 11,0 C 84 % 1004,4 hPa 0,0 mm 0,0 km/h (0 Bft) S-SO 157 8,4 C 0,0 km/h (0 Bft)
01.05.2015 19:20 11,0 C 10,9 C 87 % 1004,3 hPa 0,0 mm 0,0 km/h (0 Bft) S-SO 157 8,9 C 0,0 km/h (0 Bft)
01.05.2015 19:25 10,9 C 10,8 C 87 % 1004,3 hPa 0,0 mm 0,3 km/h (0 Bft) S-SO 157 8,8 C 0,0 km/h (0 Bft)
01.05.2015 19:30 10,8 C 10,7 C 87 % 1004,3 hPa 0,0 mm 0,8 km/h (0 Bft) W-SW 247 8,7 C 6,0 km/h (2 Bft)
01.05.2015 19:35 10,7 C 10,6 C 88 % 1004,3 hPa 0,0 mm 1,6 km/h (1 Bft) S-SO 157 8,8 C 3,4 km/h (1 Bft)
01.05.2015 19:40 10,7 C 10,6 C 88 % 1004,5 hPa 0,0 mm 2,8 km/h (1 Bft) S 180 8,8 C 0,0 km/h (0 Bft)
01.05.2015 19:45 10,7 C 10,5 C 88 % 1004,5 hPa 0,0 mm 1,8 km/h (1 Bft) S-SO 157 8,8 C 0,0 km/h (0 Bft)
01.05.2015 19:50 10,6 C 10,4 C 88 % 1004,5 hPa 0,0 mm 0,5 km/h (0 Bft) S 180 8,7 C 0,0 km/h (0 Bft)
01.05.2015 19:55 10,5 C 10,4 C 88 % 1004,5 hPa 0,0 mm 0,3 km/h (0 Bft) S 180 8,6 C 4,4 km/h (1 Bft)
01.05.2015 20:00 10,4 C 10,3 C 88 % 1004,4 hPa 0,0 mm 0,3 km/h (0 Bft) SW 225 8,5 C 0,0 km/h (0 Bft)
01.05.2015 20:05 10,4 C 10,3 C 88 % 1004,4 hPa 0,0 mm 0,8 km/h (0 Bft) S-SW 202 8,5 C 0,0 km/h (0 Bft)
01.05.2015 20:10 10,3 C 10,2 C 88 % 1004,4 hPa 0,0 mm 0,8 km/h (0 Bft) SO 135 8,4 C 0,0 km/h (0 Bft)
01.05.2015 20:15 10,3 C 10,2 C 88 % 1004,4 hPa 0,0 mm 0,0 km/h (0 Bft) S 180 8,4 C 0,0 km/h (0 Bft)
01.05.2015 20:20 10,3 C 10,2 C 89 % 1004,7 hPa 0,7 mm 0,0 km/h (0 Bft) S-SO 157 8,6 C 0,0 km/h (0 Bft)
01.05.2015 20:25 10,2 C 10,1 C 89 % 1004,7 hPa 0,0 mm 0,0 km/h (0 Bft) W-SW 247 8,5 C 0,0 km/h (0 Bft)
01.05.2015 20:30 10,2 C 10,1 C 89 % 1004,7 hPa 0,0 mm 0,0 km/h (0 Bft) SO 135 8,5 C 0,0 km/h (0 Bft)
01.05.2015 20:31 10,1 C 10,0 C 89 % 1004,7 hPa 0,0 mm 0,0 km/h (0 Bft) SW 225 8,4 C 3,4 km/h (1 Bft)
01.05.2015 20:35 10,1 C 10,0 C 89 % 1004,7 hPa 0,0 mm 0,0 km/h (0 Bft) SW 225 8,4 C 3,4 km/h (1 Bft)
01.05.2015 20:40 10,1 C 10,0 C 89 % 1004,8 hPa 0,0 mm 0,3 km/h (0 Bft) SO 135 8,4 C 0,0 km/h (0 Bft)
01.05.2015 20:45 10,0 C 9,9 C 89 % 1004,8 hPa 0,0 mm 0,0 km/h (0 Bft) O-SO 112 8,3 C 0,0 km/h (0 Bft)
01.05.2015 20:50 9,9 C 9,8 C 89 % 1004,8 hPa 0,0 mm 0,0 km/h (0 Bft) SO 135 8,2 C 0,0 km/h (0 Bft)
01.05.2015 20:55 9,9 C 9,8 C 90 % 1004,8 hPa 0,0 mm 0,0 km/h (0 Bft) O-SO 112 8,3 C 0,0 km/h (0 Bft)
01.05.2015 21:00 9,9 C 9,8 C 90 % 1004,4 hPa 0,0 mm 0,0 km/h (0 Bft) O-NO 67 8,3 C 0,0 km/h (0 Bft)
01.05.2015 21:05 9,8 C 9,7 C 90 % 1004,4 hPa 0,0 mm 0,0 km/h (0 Bft) O-NO 67 8,2 C 0,0 km/h (0 Bft)
01.05.2015 21:10 9,8 C 9,7 C 90 % 1004,4 hPa 0,0 mm 0,0 km/h (0 Bft) O-NO 67 8,2 C 0,0 km/h (0 Bft)
01.05.2015 21:15 9,8 C 9,7 C 90 % 1004,4 hPa 0,0 mm 0,0 km/h (0 Bft) N-NW 337 8,2 C 0,0 km/h (0 Bft)
01.05.2015 21:20 9,8 C 9,7 C 90 % 1004,6 hPa 0,7 mm 0,0 km/h (0 Bft) O 90 8,2 C 0,0 km/h (0 Bft)
01.05.2015 21:25 9,8 C 9,7 C 90 % 1004,6 hPa 0,0 mm 0,0 km/h (0 Bft) O-NO 67 8,2 C 0,0 km/h (0 Bft)
01.05.2015 21:30 9,7 C 9,6 C 90 % 1004,6 hPa 0,0 mm 0,0 km/h (0 Bft) W-NW 292 8,1 C 2,6 km/h (1 Bft)
01.05.2015 21:35 9,8 C 9,7 C 90 % 1004,6 hPa 0,0 mm 0,8 km/h (0 Bft) W 270 8,2 C 0,0 km/h (0 Bft)
01.05.2015 21:40 9,7 C 9,7 C 86 % 1004,7 hPa 0,0 mm 0,8 km/h (0 Bft) SW 225 7,5 C 0,0 km/h (0 Bft)
01.05.2015 21:45 9,7 C 9,6 C 90 % 1004,7 hPa 0,0 mm 0,0 km/h (0 Bft) S-SO 157 8,1 C 0,0 km/h (0 Bft)
01.05.2015 21:50 9,7 C 9,6 C 90 % 1004,7 hPa 0,0 mm 0,0 km/h (0 Bft) S 180 8,1 C 0,0 km/h (0 Bft)
01.05.2015 21:55 9,7 C 9,6 C 90 % 1004,7 hPa 0,0 mm 0,0 km/h (0 Bft) W-NW 292 8,1 C 0,0 km/h (0 Bft)
01.05.2015 22:00 9,7 C 9,6 C 90 % 1004,6 hPa 0,7 mm 0,0 km/h (0 Bft) O-SO 112 8,1 C 0,0 km/h (0 Bft)
01.05.2015 22:05 9,6 C 9,5 C 90 % 1004,6 hPa 0,0 mm 0,0 km/h (0 Bft) SO 135 8,0 C 0,0 km/h (0 Bft)
01.05.2015 22:10 9,6 C 9,5 C 90 % 1004,6 hPa 0,0 mm 0,0 km/h (0 Bft) SO 135 8,0 C 0,0 km/h (0 Bft)
01.05.2015 22:15 9,5 C 9,4 C 90 % 1004,6 hPa 0,0 mm 0,0 km/h (0 Bft) S-SO 157 7,9 C 0,0 km/h (0 Bft)
01.05.2015 22:20 9,5 C 9,4 C 90 % 1004,6 hPa 0,0 mm 0,0 km/h (0 Bft) S-SO 157 7,9 C 0,0 km/h (0 Bft)
01.05.2015 22:25 9,5 C 9,4 C 90 % 1004,6 hPa 0,0 mm 0,0 km/h (0 Bft) S-SO 157 7,9 C 0,0 km/h (0 Bft)
01.05.2015 22:30 9,5 C 9,4 C 90 % 1004,6 hPa 0,0 mm 0,3 km/h (0 Bft) SO 135 7,9 C 0,0 km/h (0 Bft)
01.05.2015 22:35 9,4 C 9,3 C 90 % 1004,6 hPa 0,0 mm 0,3 km/h (0 Bft) W-SW 247 7,8 C 0,0 km/h (0 Bft)
01.05.2015 22:40 9,4 C 9,3 C 90 % 1004,4 hPa 0,0 mm 0,0 km/h (0 Bft) S 180 7,8 C 0,0 km/h (0 Bft)
01.05.2015 22:45 9,4 C 9,3 C 90 % 1004,4 hPa 0,0 mm 0,0 km/h (0 Bft) SW 225 7,8 C 0,0 km/h (0 Bft)
01.05.2015 22:50 9,4 C 9,3 C 90 % 1004,4 hPa 0,0 mm 0,0 km/h (0 Bft) SO 135 7,8 C 0,0 km/h (0 Bft)
01.05.2015 22:55 9,3 C 9,3 C 87 % 1004,4 hPa 0,0 mm 0,0 km/h (0 Bft) S 180 7,2 C 0,0 km/h (0 Bft)
01.05.2015 23:00 9,3 C 9,2 C 90 % 1004,6 hPa 0,0 mm 0,0 km/h (0 Bft) S 180 7,7 C 0,0 km/h (0 Bft)
01.05.2015 23:05 9,3 C 9,2 C 90 % 1004,6 hPa 0,7 mm 0,0 km/h (0 Bft) S 180 7,7 C 0,0 km/h (0 Bft)
01.05.2015 23:10 9,3 C 9,2 C 90 % 1004,6 hPa 0,0 mm 0,0 km/h (0 Bft) SO 135 7,7 C 0,0 km/h (0 Bft)
01.05.2015 23:15 9,3 C 9,2 C 90 % 1004,6 hPa 0,0 mm 0,0 km/h (0 Bft) S 180 7,7 C 0,0 km/h (0 Bft)
01.05.2015 23:20 9,3 C 9,2 C 91 % 1004,7 hPa 0,0 mm 0,8 km/h (0 Bft) S 180 7,9 C 0,0 km/h (0 Bft)
01.05.2015 23:25 9,2 C 9,1 C 91 % 1004,7 hPa 0,0 mm 0,8 km/h (0 Bft) SO 135 7,8 C 0,0 km/h (0 Bft)
01.05.2015 23:30 9,2 C 9,1 C 91 % 1004,7 hPa 0,0 mm 0,3 km/h (0 Bft) SO 135 7,8 C 0,0 km/h (0 Bft)
01.05.2015 23:35 9,2 C 9,1 C 91 % 1004,7 hPa 0,0 mm 0,0 km/h (0 Bft) SO 135 7,8 C 0,0 km/h (0 Bft)
01.05.2015 23:40 9,2 C 9,1 C 91 % 1004,6 hPa 0,0 mm 0,0 km/h (0 Bft) S-SO 157 7,8 C 0,0 km/h (0 Bft)
01.05.2015 23:45 9,1 C 9,0 C 91 % 1004,6 hPa 0,0 mm 0,3 km/h (0 Bft) SW 225 7,7 C 0,0 km/h (0 Bft)
01.05.2015 23:50 9,1 C 9,0 C 91 % 1004,6 hPa 0,0 mm 1,0 km/h (0 Bft) S 180 7,7 C 3,6 km/h (1 Bft)
01.05.2015 23:55 9,2 C 9,1 C 91 % 1004,6 hPa 0,0 mm 2,8 km/h (1 Bft) SW 225 7,8 C 7,8 km/h (2 Bft)
_ Min-Zeit 06:30 02:25 17:10 19:35 - 23:40 - - 00:10 23:45
Minimum _ 5,9 C 5,8 C 79 % 1004,3 hPa - 0,0 km/h (0 Bft) - - 2,9 C 0,0 km/h (0 Bft)
_ Max-Zeit 17:25 17:15 23:55 00:15 23:05 12:50 - - 17:25 02:35
Maximum _ 12,9 C 14,5 C 91 % 1013,0 hPa 0,7 mm 3,9 km/h
O-NO (1 Bft)
- - 9,7 C 10,6 km/h
NO (2 Bft)
Durchschnitt _ 8,7 C 8,9 C 85 % 1007,5 hPa #12,4 mm 0,5 km/h (0 Bft) O-NO - 6,4 C 0,7 km/h (0 Bft)